"Pseudo-MPEC" for C077675

Created 2021 Jun 18 4:07:11 UT using Find_Orb

Click here for an explanation of pseudo-MPECs

 
 Astrometry: 
     C077675  C2021 06 09nt$RUBr;lot8kE\i-Lf6py*H0@?$O4RS@-KZAcO;!/`kP-=pCgIMV00
     C077675  C2021 06 0953G/7vCi*=Q/31Pv:AstrometryERI,Rn6`e`]SdeBw2QicNXmkcV00
     C077675  C2021 06 09.45107 23 10 42.82 -02 58 39.4    ~6BJ7 21.6 GVNEOCPG96
     C077675  C2021 06 09%t-!4,-7l`+\qC]$aF^ix'RL:yr#UQR,@I:X;cxT4uk86n_t77VCV00
     C077675  C2021 06 09.45534 23 10 43.29 -02 58 34.8    ~6BJ7 22.3 GVNEOCPG96
     C077675  C2021 06 09=pB5sw@KnMl=gJ2Agdu_@nu4SJ%jZH.PjwIBO6Eu-fE?-f*\BCV7V00
     C077675  C2021 06 09.45962 23 10 43.76 -02 58 31.0    ~6BJ7 22.2 GVNEOCPG96
     C077675 mC2021 06 09skDwJiWsQ-=N0_F_redacted;OEZ\1YVr:TB]130VX-ZGSxKq60'V00
     C077675 mC2021 06 09u:Lclick0P^i,hereViFef^Pyn`1V@Xtt0E76UeojuFN?,_bSJ(kV00
     C077675 mC2021 06 09\9`mILxT6RyMhUE-$j]$V1Wr'!/[]uPLVVJ0mdtD?t+wdh\x3:qQV00
     C077675 mC2021 06 09ur:forW/R9B.JFsqH]kFVeRSOt/2sBDM!pAX%8eZMB'F9)]+P9J\V00
     C077675 |C2021 06 11GTVV@)yFM!CHZ`yutL=!MW_d5$@q%t'[n14n8;p6=*8#)gQ/+-6l807
     C077675 |C2021 06 11!2[YRR^'3?uxTD7I:MfD?C'atjF'[bM6N.o:S-NL]LZ'=]uDIsF%807
     C077675 |C2021 06 11uDKV%g*;;ldu-q)5x@aXGYB#?explanation;A@oF;mKqM8UB-H-807
     C077675 KC2021 06 12.41665 23 16 55.75 -02 09 46.0    ~6CLq 21.8 RoNEOCP291
     C077675 KC2021 06 12.42588 23 16 56.89 -02 09 36.7    ~6CLq 21.9 RoNEOCP291
     C077675 KC2021 06 12.43512 23 16 58.02 -02 09 27.6    ~6CLq 21.9 RoNEOCP291
     C077675 KC2021 06 17.39913 23 27 21.74 -00 46 19.5    ~6HAq 21.7 GVNEOCP291
     C077675 KC2021 06 17.40945 23 27 23.00 -00 46 08.5    ~6HAq 22.0 GVNEOCP291
     C077675 KC2021 06 17.42883 23 27 25.43 -00 45 49.2    ~6HAq 21.4 GVNEOCP291

Station data:
(291) LPL/Spacewatch II  (N31.961669 W111.599905)  US/Arizona.  Observers J.
   V. Scotti, R. S. McMillan. 1.8-m f/2.7 reflector + CCD.
(807) Cerro Tololo Observatory, La Serena  (S30.169136 W70.805900)  Chile.
(G96) Mt. Lemmon Survey  (N32.442754 W110.788720)  US/Arizona.  Observers T.
   A. Pruyne, B. M. Africano, E. J. Christensen, G. A. Farneth, D. C. Fuls,
   A. R. Gibbs, A. D. Grauer, H. Gröller, J. A. Johnson, R. A. Kowalski, S.
   M. Larson, G. J. Leonard, D. Rankin, R. L. Seaman, F. C. Shelly. 1.5-m
   reflector + 10K CCD.
(V00) Kitt Peak-Bok  (N31.963127 W111.600190)  US/Arizona.

Orbital elements:  C077675
   Perihelion 2021 Sep 10.633410 +/- 5.66307 TT = 15:12:06 (JD 2459468.133410)
Epoch 2021 Jun 17.0 TT = JDT 2459382.5   Earth MOID: 0.5113   AutoNEOCP
M 341.90113193 +/- 4.2804051        (J2000 ecliptic)
n   0.21135288 +/- 0.0429603        Peri.   81.59338 +/- 3.9767642
a   2.79124055 +/- 0.380495         Node   284.53266 +/- 0.8740247
e   0.4599992 +/- 0.0629972         Incl.    3.73121 +/- 0.0598784
P   4.66                   H 18.7   G  0.15   U 10.6  
q 1.50727204 +/- 0.0370407    Q 4.07520907 +/- 0.939708
From 20 observations 2021 June 9-17; mean residual 0".27
Residuals in arcseconds: 
210609 V00  .05+  .09-    210609 V00  .29-  .26+    210612 291  .14+  .00     
210609 V00  .15-  .26+    210609 V00  .05+  .07-    210612 291  .05+  .12+    
210609 G96  .80+  .13-    210609 V00  .09+  .30-    210612 291  .19-  .04+    
210609 V00  .02+  .04+    210609 V00  .14+  .27+    210617 291  .04+  .22-    
210609 G96  .09-  .28+    210611 807  .27+  .38-    210617 291  .27-  .32+    
210609 V00  .31+  .21+    210611 807  .04-  .22-    210617 291  .16+  .03-    
210609 G96  1.0-  .12-    210611 807  .03-  .01-    

Ephemerides (geocentric):
Date (UTC) HH   RA              Dec         delta   r     elong  mag " sig PA
---- -- -- --  -------------   -----------  ------ ------ -----  --- ---- ---
2021 06 18 04  23 28 57.790   -00 33 16.22  1.2891 1.6989  94.2 21.9 1.39  51
2021 06 18 05  23 29 03.021   -00 32 33.84  1.2886 1.6987  94.2 21.9 1.42  51
2021 06 18 06  23 29 08.252   -00 31 51.46  1.2881 1.6985  94.2 21.9 1.44  51
2021 06 18 07  23 29 13.482   -00 31 09.08  1.2877 1.6984  94.3 21.9 1.46  51
2021 06 18 08  23 29 18.713   -00 30 26.69  1.2872 1.6982  94.3 21.9 1.49  51
2021 06 18 09  23 29 23.944   -00 29 44.29  1.2868 1.6980  94.3 21.9 1.51  51
2021 06 18 10  23 29 29.174   -00 29 01.89  1.2863 1.6979  94.3 21.9 1.54  51
2021 06 18 11  23 29 34.404   -00 28 19.48  1.2858 1.6977  94.3 21.9 1.56  51
2021 06 18 12  23 29 39.635   -00 27 37.06  1.2854 1.6975  94.3 21.9 1.59  50
2021 06 18 13  23 29 44.865   -00 26 54.64  1.2849 1.6974  94.3 21.9 1.61  50
2021 06 18 14  23 29 50.095   -00 26 12.21  1.2844 1.6972  94.4 21.9 1.64  50
2021 06 18 15  23 29 55.326   -00 25 29.78  1.2840 1.6970  94.4 21.9 1.67  50
2021 06 18 16  23 30 00.556   -00 24 47.34  1.2835 1.6968  94.4 21.9 1.69  50
2021 06 18 17  23 30 05.786   -00 24 04.89  1.2830 1.6967  94.4 21.9 1.72  50
2021 06 18 18  23 30 11.016   -00 23 22.44  1.2826 1.6965  94.4 21.9 1.75  50
2021 06 18 19  23 30 16.246   -00 22 39.98  1.2821 1.6963  94.4 21.9 1.77  50
2021 06 18 20  23 30 21.476   -00 21 57.52  1.2816 1.6962  94.4 21.9 1.80  50
2021 06 18 21  23 30 26.706   -00 21 15.05  1.2812 1.6960  94.5 21.9 1.83  49
2021 06 18 22  23 30 31.936   -00 20 32.57  1.2807 1.6958  94.5 21.9 1.86  49
2021 06 18 23  23 30 37.166   -00 19 50.09  1.2802 1.6957  94.5 21.9 1.89  49
2021 06 19 00  23 30 42.396   -00 19 07.60  1.2798 1.6955  94.5 21.9 1.92  49
2021 06 19 01  23 30 47.625   -00 18 25.11  1.2793 1.6953  94.5 21.9 1.94  49
2021 06 19 02  23 30 52.855   -00 17 42.61  1.2789 1.6951  94.5 21.9 1.97  49
2021 06 19 03  23 30 58.085   -00 17 00.10  1.2784 1.6950  94.6 21.9 2.00  49
2021 06 19 04  23 31 03.314   -00 16 17.59  1.2779 1.6948  94.6 21.9 2.03  49
2021 06 19 05  23 31 08.544   -00 15 35.07  1.2775 1.6946  94.6 21.9 2.06  49
2021 06 19 06  23 31 13.773   -00 14 52.55  1.2770 1.6945  94.6 21.9 2.09  49
2021 06 19 07  23 31 19.003   -00 14 10.02  1.2765 1.6943  94.6 21.9 2.13  49
2021 06 19 08  23 31 24.232   -00 13 27.48  1.2761 1.6941  94.6 21.9 2.16  49
2021 06 19 09  23 31 29.462   -00 12 44.94  1.2756 1.6940  94.6 21.9 2.19  49
2021 06 19 10  23 31 34.691   -00 12 02.39  1.2751 1.6938  94.7 21.9 2.22  49
2021 06 19 11  23 31 39.920   -00 11 19.84  1.2747 1.6936  94.7 21.9 2.25  48
2021 06 19 12  23 31 45.149   -00 10 37.28  1.2742 1.6935  94.7 21.9 2.29  48
2021 06 19 13  23 31 50.379   -00 09 54.72  1.2738 1.6933  94.7 21.9 2.32  48
2021 06 19 14  23 31 55.608   -00 09 12.14  1.2733 1.6931  94.7 21.9 2.35  48
2021 06 19 15  23 32 00.837   -00 08 29.57  1.2728 1.6930  94.7 21.9 2.38  48
2021 06 19 16  23 32 06.066   -00 07 46.99  1.2724 1.6928  94.7 21.9 2.42  48
2021 06 19 17  23 32 11.295   -00 07 04.40  1.2719 1.6926  94.8 21.9 2.45  48
2021 06 19 18  23 32 16.524   -00 06 21.80  1.2715 1.6924  94.8 21.9 2.49  48
2021 06 19 19  23 32 21.753   -00 05 39.20  1.2710 1.6923  94.8 21.9 2.52  48
2021 06 19 20  23 32 26.981   -00 04 56.60  1.2705 1.6921  94.8 21.9 2.56  48
2021 06 19 21  23 32 32.210   -00 04 13.98  1.2701 1.6919  94.8 21.9 2.59  48
2021 06 19 22  23 32 37.439   -00 03 31.37  1.2696 1.6918  94.8 21.9 2.63  48
2021 06 19 23  23 32 42.668   -00 02 48.74  1.2691 1.6916  94.9 21.9 2.66  48
2021 06 20 00  23 32 47.896   -00 02 06.11  1.2687 1.6914  94.9 21.9 2.70  48
2021 06 20 01  23 32 53.125   -00 01 23.48  1.2682 1.6913  94.9 21.9 2.74  48
2021 06 20 02  23 32 58.353   -00 00 40.84  1.2678 1.6911  94.9 21.9 2.77  48
2021 06 20 03  23 33 03.582   +00 00 01.81  1.2673 1.6909  94.9 21.9 2.81  48